Wind_Speed
104 109 113 117 118 121 129 129 132 130 120 110 101 87 82 78 75 75 73 70 69 71 74 83 87 85 90 94 98 104 110 112 115 125 139 144 145 146 151 153 155 157 154 153
107 112 116 120 122 128 132 136 137 127 113 107 96 89 81 73 68 64 66 64 63 64 64 72 80 80 83 88 93 99 103 110 112 116 124 134 142 146 147 150 153 154 155 155
112 118 123 127 129 129 136 141 134 121 104 100 94 86 80 74 65 59 58 58 57 56 55 59 71 77 78 84 88 92 98 104 111 113 115 122 132 140 144 148 150 152 153 154
119 125 131 134 137 137 137 126 121 111 103 91 86 72 80 70 65 58 54 52 51 49 49 53 60 67 74 76 82 86 92 100 106 112 113 115 120 129 135 142 146 148 150 150
127 133 137 138 134 131 119 117 107 102 98 90 80 71 77 68 63 57 51 45 44 43 42 44 50 58 62 68 75 80 85 93 100 105 110 114 116 119 125 131 138 143 145 148
130 135 136 133 125 123 121 105 101 97 93 90 78 71 71 66 59 51 46 37 37 39 40 40 44 50 55 60 66 71 77 84 94 101 106 112 117 119 121 124 127 134 141 142
135 136 133 129 126 114 114 106 97 88 84 84 75 73 68 62 53 45 41 36 35 34 36 40 42 45 49 54 58 63 71 78 86 94 101 107 113 117 117 120 123 127 133 139
130 128 129 131 126 111 104 97 91 84 80 76 72 68 64 57 45 39 37 35 32 30 32 34 37 40 43 49 54 59 65 71 77 85 93 101 107 112 115 117 117 120 125 130
138 128 128 125 113 110 98 94 86 80 81 75 73 64 58 51 41 35 34 31 28 26 28 31 34 37 40 43 46 52 57 63 68 75 84 91 98 105 110 113 113 113 118 124
139 130 120 113 104 105 94 89 83 80 76 72 67 61 54 43 39 34 32 28 26 25 26 31 32 32 34 37 41 44 48 54 61 67 73 82 89 96 103 108 111 111 114 119
134 126 112 108 100 93 91 84 80 74 71 69 63 57 51 39 35 32 28 25 24 25 24 26 26 26 28 31 35 40 44 48 53 60 66 74 82 88 95 101 106 110 113 115
124 113 106 104 96 88 85 84 77 72 69 67 61 52 48 38 34 29 25 23 24 24 21 20 21 23 26 27 31 36 40 43 46 51 60 67 74 81 88 94 100 105 110 112
114 112 103 100 94 87 87 80 73 70 62 63 60 51 43 37 32 28 24 22 23 20 18 17 20 21 23 26 28 32 35 38 42 47 52 59 66 73 81 89 95 98 105 109
111 109 105 99 91 86 84 74 70 68 62 59 59 50 42 35 32 27 24 22 20 16 15 16 17 20 23 23 26 30 34 36 39 42 48 53 61 68 76 81 90 94 99 106
103 101 97 93 90 87 82 72 67 67 63 61 53 50 42 34 30 24 22 21 16 15 16 16 17 18 19 20 23 27 30 33 34 38 41 44 52 61 68 75 80 88 93 98
96 93 91 89 86 81 78 72 68 66 62 61 55 48 40 33 27 22 21 20 15 14 15 16 14 17 17 18 19 20 23 27 30 29 33 38 42 52 60 64 71 77 87 93
90 87 88 87 82 77 73 70 68 64 62 58 52 47 37 31 26 22 20 19 15 15 15 13 11 14 14 14 15 15 17 20 21 24 28 31 36 42 51 56 61 70 77 86
88 82 84 81 78 73 70 67 64 60 62 57 50 45 37 30 25 20 20 20 16 14 16 13 10 12 13 12 13 16 14 13 15 17 20 24 29 36 43 50 55 61 69 77
84 80 80 76 72 72 68 62 62 58 59 56 49 43 37 29 25 19 19 20 17 15 18 11 11 11 11 10 12 14 13 12 10 10 12 17 24 30 37 43 48 52 62 70
79 78 77 74 68 67 66 62 58 59 58 54 46 42 36 29 25 19 18 20 18 16 18 14 12 13 11 12 11 13 12 11 9 8 9 14 20 26 32 37 42 46 54 65
78 76 76 76 65 65 63 61 59 59 57 52 45 40 35 29 23 19 19 20 18 17 19 16 15 14 16 13 11 9 8 9 6 4 6 11 18 25 32 36 38 41 47 56
74 75 75 76 67 63 60 59 56 59 54 51 44 39 33 29 22 20 18 21 20 18 21 18 18 19 15 15 10 8 6 1 2 5 9 14 20 25 32 36 41 43 48 54
73 71 71 72 66 62 55 57 57 57 54 48 44 37 33 29 22 20 17 21 22 20 21 18 20 21 16 17 13 13 7 12 10 9 15 18 21 28 32 35 38 44 47 54
71 68 65 66 67 60 57 58 58 57 52 47 44 36 31 29 24 20 19 21 25 23 22 20 23 26 20 21 19 18 14 17 15 17 20 19 26 29 32 35 38 40 47 53
67 65 63 65 62 62 59 59 60 56 50 46 43 37 29 28 25 21 21 22 25 27 24 24 25 29 24 23 25 21 19 27 27 27 27 25 27 30 36 37 40 45 48 56
65 66 64 65 64 65 61 61 61 56 50 46 40 35 30 26 26 24 22 24 25 30 28 27 26 32 29 25 31 28 23 33 37 35 36 34 34 36 39 42 44 47 51 55
Wind_Direction
321 320 322 322 321 320 321 321 324 326 324 322 315 313 304 297 296 292 286 281 273 265 257 252 250 245 244 244 242 241 242 241 238 236 233 234 235 232 231 231 231 230 227 224
320 320 321 321 320 321 322 323 325 327 324 322 316 314 307 303 301 292 286 280 272 264 256 251 250 246 240 238 237 235 236 238 238 235 234 233 233 234 232 230 231 230 228 224
320 320 320 320 322 322 322 325 327 326 325 322 318 318 310 311 304 297 289 282 275 267 260 252 250 249 243 238 234 232 232 232 234 235 232 231 231 232 232 232 230 230 230 227
321 321 319 319 322 323 322 325 327 325 325 322 318 319 311 313 307 301 293 287 281 277 271 260 253 250 247 242 238 233 231 230 231 231 232 232 229 230 230 230 231 230 229 229
323 322 320 322 326 326 327 326 327 325 325 321 322 320 314 312 308 304 300 293 283 276 268 262 258 252 248 245 241 238 233 231 230 229 229 229 230 228 228 229 228 229 228 227
321 322 323 325 326 328 328 329 328 329 326 322 325 322 316 314 310 310 302 296 287 279 272 264 255 251 247 245 242 240 236 233 232 231 229 228 226 226 226 227 226 226 227 226
323 324 325 327 329 329 329 329 331 331 327 324 325 323 317 314 314 310 302 296 287 278 269 264 259 252 247 245 242 240 239 235 231 231 230 229 227 226 225 224 223 223 223 225
325 325 325 328 329 330 330 330 331 332 327 325 324 324 318 317 315 309 302 296 290 281 267 260 257 255 252 246 242 240 237 238 234 230 230 229 228 227 226 224 223 221 220 221
324 327 326 326 329 330 333 331 332 332 329 329 327 324 321 317 314 309 304 299 294 282 273 265 256 251 248 247 245 243 241 238 236 232 229 229 229 227 226 225 223 221 220 218
326 329 328 328 330 330 334 332 334 333 331 327 328 324 321 321 316 311 309 303 292 281 266 260 258 257 255 251 249 246 241 238 237 233 231 231 228 228 227 225 224 221 219 218
327 330 331 330 331 332 332 333 335 332 331 329 329 326 322 323 318 315 309 298 286 276 270 263 262 261 260 257 254 252 248 242 236 234 231 229 228 226 226 225 224 221 219 217
326 329 331 330 331 332 333 333 334 332 333 331 330 329 325 324 322 318 306 293 283 279 273 270 271 267 259 256 254 251 247 245 241 235 233 230 227 227 223 223 224 222 219 217
326 325 329 329 331 333 333 333 333 333 334 334 331 332 328 325 323 318 303 288 279 279 276 275 272 274 271 263 260 259 255 249 242 236 232 231 229 226 224 222 221 222 220 217
324 326 328 330 332 335 334 335 335 334 335 338 332 332 330 327 324 318 298 283 279 276 279 279 276 271 270 266 263 259 256 252 244 238 234 229 226 226 224 222 221 218 218 217
327 326 329 331 333 335 334 335 337 336 336 337 335 332 328 327 324 314 291 284 280 282 287 282 280 275 272 270 266 264 261 257 252 244 239 233 229 227 225 222 219 219 215 216
328 328 328 330 331 334 334 335 338 336 336 336 335 330 328 323 321 311 288 283 279 282 280 279 278 284 279 276 274 264 261 254 248 247 243 237 230 228 226 224 220 217 217 212
328 327 327 329 331 334 334 335 337 336 334 336 333 327 327 321 318 310 289 284 281 280 274 271 279 274 282 284 282 282 272 262 254 245 241 233 227 225 226 223 220 216 214 214
325 329 327 330 331 334 334 334 334 335 333 334 332 327 325 319 315 306 288 283 278 278 275 267 270 270 277 284 298 297 296 280 263 246 242 233 223 219 221 222 218 214 212 212
325 330 327 331 331 333 334 335 334 334 333 331 331 326 322 319 312 305 288 278 273 273 275 264 262 260 278 275 290 293 307 297 292 264 237 230 222 215 213 218 216 211 209 208
326 328 328 331 333 333 335 333 334 334 332 331 331 324 319 317 308 301 284 272 267 267 268 250 248 249 260 256 279 295 311 306 316 272 235 217 211 206 202 205 208 206 207 205
328 328 329 330 336 334 335 332 334 333 333 330 329 324 317 314 304 296 278 264 257 259 261 244 235 247 240 249 271 306 275 316 324 260 219 210 204 197 192 191 193 197 201 201
330 329 330 329 335 335 335 332 334 332 331 327 327 323 316 310 301 290 276 258 249 249 257 241 223 237 239 242 258 240 258 225 137 189 217 196 190 184 185 185 185 187 189 192
329 330 332 330 334 333 334 333 332 332 330 327 325 322 314 307 298 286 272 255 244 243 246 244 225 233 231 232 231 217 205 165 160 186 186 176 179 178 178 180 182 181 184 185
329 332 333 332 332 334 334 334 331 331 329 326 323 321 312 303 294 281 268 252 239 237 237 237 225 228 228 222 228 218 201 173 166 158 161 174 168 169 170 170 171 176 178 180
332 334 334 333 334 331 334 332 330 329 326 324 323 318 311 299 291 279 264 251 240 232 230 230 223 226 226 220 228 223 209 175 158 147 149 150 159 163 162 163 166 166 176 177
334 335 335 334 334 330 332 331 330 327 325 323 322 315 308 296 287 280 263 250 241 231 229 226 224 225 219 220 219 228 208 186 161 153 147 145 150 155 159 157 162 166 170 175
Height
10449 10429 10412 10393 10375 10356 10340 10319 10299 10279 10247 10219 10195 10190 10166 10146 10136 10120 10106 10098 10092 10091 10092 10086 10087 10099 10110 10123 10135 10146 10159 10174 10191 10208 10226 10248 10266 10289 10314 10334 10354 10383 10414 10441
10429 10405 10386 10372 10354 10330 10305 10283 10263 10243 10214 10184 10166 10147 10128 10118 10107 10092 10075 10066 10062 10060 10063 10063 10063 10071 10079 10088 10099 10111 10126 10139 10154 10173 10192 10214 10234 10252 10273 10300 10323 10346 10373 10406
10409 10385 10361 10343 10331 10312 10279 10248 10230 10199 10194 10165 10134 10115 10097 10085 10075 10064 10052 10044 10040 10039 10042 10044 10042 10046 10054 10061 10072 10085 10096 10107 10119 10135 10155 10175 10195 10216 10239 10263 10287 10311 10336 10368
10389 10368 10338 10319 10299 10273 10259 10231 10206 10176 10156 10145 10118 10111 10072 10063 10048 10039 10032 10026 10022 10021 10023 10024 10025 10029 10034 10041 10049 10059 10067 10077 10089 10102 10121 10142 10163 10183 10203 10224 10249 10276 10303 10331
10356 10340 10311 10292 10273 10245 10225 10203 10183 10162 10131 10112 10100 10084 10053 10043 10029 10020 10014 10011 10004 10002 10003 10005 10007 10009 10015 10021 10026 10034 10045 10054 10061 10073 10091 10108 10130 10151 10168 10190 10214 10240 10267 10296
10339 10317 10287 10268 10247 10216 10195 10179 10160 10138 10108 10084 10076 10062 10039 10024 10013 10005 9996 9994 9991 9988 9987 9989 9990 9992 9995 10000 10006 10014 10023 10030 10039 10051 10063 10077 10093 10111 10133 10155 10180 10206 10232 10260
10322 10293 10258 10244 10232 10199 10165 10140 10135 10127 10098 10071 10057 10040 10023 10011 10002 9991 9982 9979 9977 9976 9974 9972 9973 9976 9979 9984 9989 9994 9998 10003 10014 10026 10039 10052 10066 10083 10104 10121 10144 10168 10197 10227
10302 10284 10240 10216 10193 10181 10157 10131 10112 10098 10079 10063 10046 10030 10010 9997 9988 9980 9972 9968 9965 9964 9962 9962 9962 9963 9966 9968 9970 9975 9980 9985 9995 10005 10015 10028 10042 10059 10078 10095 10117 10140 10165 10193
10268 10258 10219 10192 10172 10151 10137 10112 10095 10078 10056 10044 10029 10014 10001 9985 9977 9970 9963 9959 9956 9954 9952 9950 9950 9950 9951 9954 9957 9961 9966 9971 9978 9987 9995 10008 10022 10037 10054 10072 10092 10116 10139 10164
10236 10229 10198 10176 10154 10123 10116 10099 10080 10061 10047 10031 10020 10001 9987 9978 9967 9960 9955 9951 9946 9944 9941 9940 9940 9940 9942 9944 9945 9948 9953 9957 9961 9969 9980 9990 10003 10017 10032 10050 10070 10090 10111 10136
10205 10197 10177 10156 10139 10122 10097 10083 10068 10054 10037 10018 10007 9990 9978 9968 9960 9954 9949 9943 9939 9934 9934 9932 9932 9934 9935 9936 9937 9937 9939 9941 9945 9952 9960 9969 9980 9995 10011 10028 10044 10066 10085 10111
10187 10178 10164 10142 10125 10110 10090 10071 10055 10039 10022 10005 9995 9983 9968 9959 9953 9948 9941 9935 9931 9928 9927 9926 9926 9926 9925 9926 9925 9923 9925 9928 9934 9940 9944 9952 9962 9975 9989 10006 10023 10043 10065 10088
10167 10153 10144 10127 10108 10093 10077 10058 10041 10025 10014 9998 9983 9973 9962 9951 9945 9941 9935 9929 9925 9924 9922 9921 9920 9919 9919 9916 9915 9914 9915 9917 9920 9923 9930 9938 9948 9958 9971 9984 10001 10023 10044 10066
10149 10127 10111 10101 10089 10077 10060 10044 10027 10012 10000 9990 9972 9964 9955 9945 9939 9935 9929 9924 9921 9919 9917 9916 9915 9913 9911 9909 9908 9906 9905 9906 9909 9913 9916 9922 9929 9939 9951 9965 9982 10001 10022 10045
10131 10114 10094 10084 10070 10058 10043 10031 10017 10000 9990 9977 9968 9956 9947 9940 9933 9930 9923 9919 9916 9913 9912 9911 9908 9907 9906 9904 9903 9901 9900 9900 9902 9904 9909 9914 9919 9925 9936 9949 9965 9985 10004 10028
10115 10102 10083 10071 10060 10050 10034 10020 10005 9991 9980 9970 9958 9949 9941 9934 9929 9925 9918 9914 9912 9910 9908 9905 9903 9902 9901 9899 9898 9895 9893 9892 9893 9898 9902 9906 9912 9917 9923 9937 9954 9972 9990 10006
10102 10091 10075 10056 10048 10037 10024 10008 9996 9984 9971 9963 9952 9942 9936 9929 9924 9919 9912 9909 9908 9906 9904 9900 9900 9897 9896 9895 9894 9892 9889 9888 9889 9890 9891 9897 9903 9910 9918 9928 9943 9960 9976 9996
10091 10081 10064 10050 10037 10027 10014 10000 9988 9978 9963 9955 9944 9934 9928 9923 9917 9913 9907 9904 9903 9902 9900 9898 9897 9894 9893 9893 9892 9888 9887 9885 9885 9885 9888 9892 9896 9902 9910 9920 9933 9948 9965 9983
10079 10067 10052 10041 10029 10015 10004 9991 9978 9969 9957 9946 9936 9926 9919 9916 9911 9908 9902 9899 9898 9899 9897 9895 9894 9893 9892 9891 9888 9886 9884 9883 9884 9883 9884 9888 9891 9897 9904 9915 9927 9940 9955 9972
10064 10052 10037 10027 10020 10007 9994 9980 9971 9959 9948 9937 9929 9919 9912 9909 9904 9903 9897 9894 9892 9893 9893 9892 9891 9891 9890 9889 9887 9886 9884 9883 9884 9882 9883 9885 9889 9892 9900 9909 9921 9934 9947 9962
10048 10036 10023 10010 10007 9996 9984 9969 9960 9950 9938 9929 9921 9912 9905 9901 9898 9897 9893 9889 9888 9889 9889 9889 9890 9890 9889 9889 9888 9887 9885 9885 9885 9883 9884 9886 9888 9894 9899 9906 9917 9929 9943 9959
10038 10024 10010 9998 9989 9981 9971 9960 9953 9941 9931 9918 9913 9904 9897 9893 9891 9890 9888 9885 9883 9885 9885 9887 9888 9887 9888 9889 9889 9889 9888 9887 9888 9887 9886 9888 9891 9896 9901 9906 9912 9923 9936 9953
10027 10016 10003 9990 9979 9968 9963 9951 9941 9932 9921 9911 9904 9897 9889 9885 9884 9882 9882 9880 9878 9879 9882 9885 9885 9885 9887 9889 9890 9890 9890 9889 9889 9889 9889 9891 9895 9897 9901 9909 9916 9926 9937 9952
10013 10003 9995 9981 9965 9959 9953 9942 9931 9922 9911 9902 9895 9889 9882 9877 9876 9875 9874 9874 9873 9872 9875 9880 9882 9882 9885 9889 9889 9890 9892 9890 9892 9893 9894 9896 9900 9903 9905 9911 9921 9931 9940 9952
10002 9993 9983 9969 9961 9949 9943 9932 9921 9912 9903 9894 9886 9879 9874 9869 9867 9867 9866 9867 9868 9867 9868 9873 9877 9879 9883 9888 9889 9889 9891 9893 9894 9897 9900 9902 9906 9908 9911 9916 9923 9934 9943 9954
9992 9982 9973 9961 9951 9940 9933 9920 9910 9902 9893 9884 9877 9870 9865 9861 9858 9858 9858 9858 9860 9861 9861 9866 9873 9875 9879 9885 9888 9888 9890 9893 9895 9897 9903 9906 9910 9912 9917 9923 9928 9937 9946 9960